286P/Christensen (2022)

Japanese version
Home page
Updated on January 8, 2021

---------------------------------------------------------------------

* Profile

* Orbital Elements

Epoch 2022 May 21.0 TT = JDT 2459720.5
T 2022 May 12.63792 TT                                  MPC
q   2.3609985            (2000.0)            P               Q
n   0.11825939     Peri.   24.85767     +0.60886707     +0.74051820
a   4.1106670      Node   283.95561     -0.76799108     +0.46045684
e   0.4256410      Incl.   17.04394     -0.19867209     +0.48950208
P   8.33
From 124 observations 2005 June 3-2014 Oct. 28, mean residual 0".5.

* Magnitudes Graph

        m1 = 13.5 + 5 log d + 10.0 log r

---------------------------------------------------------------------

The orbital elements are published on M.P.E.C. 2014-V27.
The magnitudes graphs are made with Comet for Windows.

---------------------------------------------------------------------

Copyright(C) Seiichi Yoshida (comet@aerith.net). All rights reserved.